Back to Top

Language: 

My Weather Underground Personal Weather Station Historical Data with Graphs...

Delerius Weather Station Historical Data
Daily Summary for July 21, 2017 Units:  English    Metric   Both
« Previous Day
Next Day »
Daily Weekly Monthly Yearly Custom
  High: Low: Average:
Temperature: 69.4 °F 54.3 °F 62.2 °F
Dew Point: 56.5 °F 48.3 °F 52.8 °F
Humidity: 91 % 57 % 72 %
Wind Speed: 17.0 mph 0.0 mph 9.8 mph
Wind Gust: 33.0 mph - -
Wind:- - SSE
Pressure: 29.76 in 29.64 in -
Precipitation: 0.01 in    
Historical Graphs
 
 
Tabular Data for July 21, 2017
Time Temperature Dew Point Pressure Wind Wind Speed Wind Gust Humidity Rainfall Rate (Hourly) solar Conditions
00:00 55.4 °F 48.3 °F 29.75 in SW 4.0 mph 7.0 mph 77 % 0.00 in 0 W/m2
00:05 55.6 °F 48.5 °F 29.76 in SSW 4.0 mph 6.0 mph 77 % 0.00 in 0 W/m2
00:10 55.6 °F 48.5 °F 29.76 in SSW 3.0 mph 6.0 mph 77 % 0.00 in 0 W/m2
00:15 55.6 °F 48.5 °F 29.75 in SW 3.0 mph 6.0 mph 77 % 0.00 in 0 W/m2
00:20 55.6 °F 48.5 °F 29.75 in SW 2.0 mph 6.0 mph 77 % 0.00 in 0 W/m2
00:25 55.8 °F 48.7 °F 29.76 in SW 1.0 mph 5.0 mph 77 % 0.00 in 0 W/m2
00:30 55.8 °F 48.7 °F 29.75 in Calm   4.0 mph 77 % 0.00 in 0 W/m2
00:35 55.8 °F 48.7 °F 29.75 in Calm   1.0 mph 77 % 0.00 in 0 W/m2
00:40 55.8 °F 48.7 °F 29.75 in Calm   2.0 mph 77 % 0.00 in 0 W/m2
00:45 55.8 °F 49.0 °F 29.75 in Calm   2.0 mph 78 % 0.00 in 0 W/m2
00:50 55.8 °F 49.0 °F 29.75 in Calm   2.0 mph 78 % 0.00 in 0 W/m2
00:56 55.8 °F 49.3 °F 29.75 in Calm   2.0 mph 79 % 0.00 in 0 W/m2
01:01 55.6 °F 49.2 °F 29.75 in Calm   2.0 mph 79 % 0.00 in 0 W/m2
01:06 55.6 °F 49.2 °F 29.75 in SE 1.0 mph 4.0 mph 79 % 0.00 in 0 W/m2
01:11 55.6 °F 49.2 °F 29.75 in East 1.0 mph 4.0 mph 79 % 0.00 in 0 W/m2
01:16 55.6 °F 49.2 °F 29.75 in East 2.0 mph 6.0 mph 79 % 0.00 in 0 W/m2
01:21 55.6 °F 49.2 °F 29.75 in East 3.0 mph 6.0 mph 79 % 0.00 in 0 W/m2
01:26 55.6 °F 49.5 °F 29.75 in ESE 4.0 mph 7.0 mph 80 % 0.00 in 0 W/m2
01:31 55.4 °F 49.3 °F 29.75 in ESE 3.0 mph 7.0 mph 80 % 0.00 in 0 W/m2
01:35 55.4 °F 49.3 °F 29.75 in ESE 4.0 mph 7.0 mph 80 % 0.00 in 0 W/m2
01:41 55.2 °F 49.2 °F 29.75 in ESE 4.0 mph 7.0 mph 80 % 0.00 in 0 W/m2
01:46 55.2 °F 49.5 °F 29.75 in ESE 3.0 mph 6.0 mph 81 % 0.00 in 0 W/m2
01:51 55.0 °F 49.3 °F 29.75 in East 3.0 mph 6.0 mph 81 % 0.00 in 0 W/m2
01:56 54.9 °F 49.1 °F 29.75 in East 2.0 mph 6.0 mph 81 % 0.00 in 0 W/m2
02:01 54.9 °F 49.5 °F 29.75 in East 3.0 mph 6.0 mph 82 % 0.00 in 0 W/m2
02:02 54.9 °F 49.5 °F 29.75 in East 3.0 mph 6.0 mph 82 % 0.00 in 0 W/m2
02:07 54.9 °F 49.5 °F 29.74 in East 3.0 mph 6.0 mph 82 % 0.00 in 0 W/m2
02:12 54.7 °F 49.3 °F 29.74 in East 3.0 mph 7.0 mph 82 % 0.00 in 0 W/m2
02:17 54.7 °F 49.3 °F 29.74 in East 4.0 mph 7.0 mph 82 % 0.00 in 0 W/m2
02:22 54.7 °F 49.6 °F 29.74 in East 4.0 mph 7.0 mph 83 % 0.00 in 0 W/m2
02:27 54.7 °F 49.6 °F 29.74 in ESE 5.0 mph 8.0 mph 83 % 0.00 in 0 W/m2
02:32 54.5 °F 49.4 °F 29.73 in ESE 4.0 mph 8.0 mph 83 % 0.00 in 0 W/m2
02:37 54.5 °F 49.4 °F 29.73 in East 3.0 mph 7.0 mph 83 % 0.00 in 0 W/m2
02:42 54.5 °F 49.4 °F 29.73 in ESE 4.0 mph 7.0 mph 83 % 0.00 in 0 W/m2
02:47 54.5 °F 49.8 °F 29.73 in ESE 5.0 mph 8.0 mph 84 % 0.00 in 0 W/m2
02:52 54.5 °F 49.8 °F 29.73 in SE 5.0 mph 8.0 mph 84 % 0.00 in 0 W/m2
02:57 54.3 °F 49.6 °F 29.73 in SE 5.0 mph 7.0 mph 84 % 0.00 in 0 W/m2
03:02 54.3 °F 49.6 °F 29.72 in SE 5.0 mph 8.0 mph 84 % 0.00 in 0 W/m2
03:07 54.3 °F 49.6 °F 29.72 in SE 5.0 mph 8.0 mph 84 % 0.00 in 0 W/m2
03:12 54.3 °F 49.6 °F 29.72 in SE 5.0 mph 9.0 mph 84 % 0.00 in 0 W/m2
03:17 54.3 °F 49.6 °F 29.73 in SE 5.0 mph 9.0 mph 84 % 0.00 in 0 W/m2
03:22 54.3 °F 49.6 °F 29.73 in SE 5.0 mph 7.0 mph 84 % 0.00 in 0 W/m2
03:27 54.3 °F 49.3 °F 29.72 in SE 5.0 mph 9.0 mph 83 % 0.00 in 0 W/m2
03:32 54.3 °F 49.3 °F 29.72 in SE 5.0 mph 10.0 mph 83 % 0.00 in 0 W/m2
03:37 54.7 °F 49.6 °F 29.72 in SE 6.0 mph 10.0 mph 83 % 0.00 in 0 W/m2
03:42 54.7 °F 49.3 °F 29.72 in SE 6.0 mph 10.0 mph 82 % 0.00 in 0 W/m2
03:47 54.9 °F 49.5 °F 29.72 in SE 6.0 mph 11.0 mph 82 % 0.00 in 0 W/m2
03:52 54.9 °F 49.5 °F 29.72 in SSE 6.0 mph 11.0 mph 82 % 0.00 in 0 W/m2
03:57 54.9 °F 49.5 °F 29.72 in SE 6.0 mph 12.0 mph 82 % 0.00 in 0 W/m2
04:02 55.0 °F 49.3 °F 29.72 in SSE 6.0 mph 12.0 mph 81 % 0.00 in 0 W/m2
04:07 55.0 °F 49.3 °F 29.72 in SSE 6.0 mph 9.0 mph 81 % 0.00 in 0 W/m2
04:12 55.2 °F 49.5 °F 29.72 in SSE 7.0 mph 16.0 mph 81 % 0.00 in 0 W/m2
04:17 55.2 °F 49.8 °F 29.72 in SE 9.0 mph 18.0 mph 82 % 0.00 in 0 W/m2
04:22 55.2 °F 50.1 °F 29.71 in SSE 10.0 mph 18.0 mph 83 % 0.00 in 0 W/m2
04:27 55.0 °F 50.0 °F 29.71 in SSE 9.0 mph 14.0 mph 83 % 0.00 in 0 W/m2
04:32 55.0 °F 50.3 °F 29.71 in SSE 8.0 mph 13.0 mph 84 % 0.00 in 0 W/m2
04:37 55.0 °F 50.3 °F 29.71 in SSE 8.0 mph 13.0 mph 84 % 0.00 in 0 W/m2
04:42 55.0 °F 50.6 °F 29.70 in SSE 9.0 mph 16.0 mph 85 % 0.00 in 0 W/m2
04:47 55.2 °F 50.8 °F 29.70 in SSE 9.0 mph 16.0 mph 85 % 0.00 in 0 W/m2
04:52 55.2 °F 50.8 °F 29.70 in SSE 8.0 mph 14.0 mph 85 % 0.00 in 0 W/m2
04:57 55.4 °F 51.3 °F 29.70 in SSE 8.0 mph 14.0 mph 86 % 0.00 in 0 W/m2
05:02 55.4 °F 51.3 °F 29.70 in SSE 8.0 mph 13.0 mph 86 % 0.00 in 7 W/m2
05:07 55.4 °F 51.3 °F 29.70 in SSE 7.0 mph 13.0 mph 86 % 0.00 in 12 W/m2
05:12 55.4 °F 51.6 °F 29.70 in SSE 9.0 mph 16.0 mph 87 % 0.00 in 18 W/m2
05:17 55.4 °F 51.6 °F 29.70 in SSE 11.0 mph 20.0 mph 87 % 0.00 in 23 W/m2
05:22 55.4 °F 51.6 °F 29.70 in SSE 10.0 mph 20.0 mph 87 % 0.00 in 21 W/m2
05:27 55.4 °F 51.9 °F 29.70 in SSE 9.0 mph 16.0 mph 88 % 0.00 in 30 W/m2
05:32 55.2 °F 51.7 °F 29.70 in SSE 8.0 mph 16.0 mph 88 % 0.00 in 35 W/m2
05:37 55.2 °F 52.0 °F 29.70 in SSE 9.0 mph 15.0 mph 89 % 0.00 in 39 W/m2
05:42 55.0 °F 52.2 °F 29.70 in SSE 9.0 mph 15.0 mph 90 % 0.00 in 40 W/m2
05:47 55.0 °F 52.2 °F 29.70 in SSE 8.0 mph 15.0 mph 90 % 0.00 in 44 W/m2
05:52 55.0 °F 52.2 °F 29.69 in SSE 7.0 mph 14.0 mph 90 % 0.00 in 51 W/m2
05:57 55.0 °F 52.2 °F 29.70 in SSE 8.0 mph 14.0 mph 90 % 0.00 in 47 W/m2
06:02 55.0 °F 52.5 °F 29.70 in SSE 8.0 mph 14.0 mph 91 % 0.00 in 47 W/m2
06:07 55.0 °F 52.5 °F 29.70 in SE 8.0 mph 14.0 mph 91 % 0.00 in 51 W/m2
06:12 55.0 °F 52.5 °F 29.70 in SE 9.0 mph 14.0 mph 91 % 0.00 in 47 W/m2
06:17 55.0 °F 52.5 °F 29.70 in SSE 8.0 mph 15.0 mph 91 % 0.00 in 51 W/m2
06:22 55.0 °F 52.5 °F 29.70 in SSE 8.0 mph 15.0 mph 91 % 0.00 in 49 W/m2
06:27 55.2 °F 52.6 °F 29.69 in SSE 8.0 mph 13.0 mph 91 % 0.00 in 62 W/m2
06:32 55.2 °F 52.3 °F 29.69 in SSE 8.0 mph 13.0 mph 90 % 0.00 in 62 W/m2
06:37 55.2 °F 52.3 °F 29.69 in SE 9.0 mph 16.0 mph 90 % 0.00 in 65 W/m2
06:42 55.4 °F 52.5 °F 29.69 in SSE 9.0 mph 16.0 mph 90 % 0.00 in 84 W/m2
06:47 55.6 °F 52.7 °F 29.69 in SSE 8.0 mph 14.0 mph 90 % 0.00 in 105 W/m2
06:52 55.8 °F 52.9 °F 29.69 in SSE 8.0 mph 13.0 mph 90 % 0.00 in 125 W/m2
06:57 55.9 °F 52.7 °F 29.69 in SSE 9.0 mph 14.0 mph 89 % 0.00 in 125 W/m2
07:02 56.1 °F 52.9 °F 29.69 in SSE 8.0 mph 14.0 mph 89 % 0.00 in 130 W/m2
07:07 56.5 °F 53.3 °F 29.69 in SSE 9.0 mph 15.0 mph 89 % 0.00 in 120 W/m2
07:12 56.7 °F 53.1 °F 29.69 in SE 10.0 mph 16.0 mph 88 % 0.00 in 113 W/m2
07:17 56.8 °F 53.3 °F 29.69 in SSE 9.0 mph 16.0 mph 88 % 0.00 in 137 W/m2
07:22 57.0 °F 53.5 °F 29.69 in SSE 8.0 mph 14.0 mph 88 % 0.00 in 274 W/m2
07:27 57.4 °F 53.9 °F 29.69 in SSE 8.0 mph 13.0 mph 88 % 0.00 in 311 W/m2
07:32 57.9 °F 54.4 °F 29.69 in SSE 8.0 mph 13.0 mph 88 % 0.00 in 246 W/m2
07:37 58.3 °F 54.7 °F 29.70 in SSE 9.0 mph 19.0 mph 88 % 0.00 in 294 W/m2
07:42 58.6 °F 55.1 °F 29.70 in SSE 9.0 mph 19.0 mph 88 % 0.00 in 292 W/m2
07:48 58.8 °F 55.3 °F 29.69 in SSE 9.0 mph 18.0 mph 88 % 0.00 in 294 W/m2
07:53 59.0 °F 54.8 °F 29.70 in SSE 10.0 mph 21.0 mph 86 % 0.00 in 195 W/m2
07:58 59.0 °F 55.1 °F 29.70 in SSE 10.0 mph 21.0 mph 87 % 0.00 in 176 W/m2
08:03 59.0 °F 54.8 °F 29.70 in SSE 9.0 mph 20.0 mph 86 % 0.00 in 265 W/m2
08:08 59.2 °F 55.0 °F 29.70 in SSE 10.0 mph 20.0 mph 86 % 0.00 in 260 W/m2
08:13 59.4 °F 55.2 °F 29.70 in SSE 10.0 mph 16.0 mph 86 % 0.00 in 376 W/m2
08:18 59.7 °F 55.2 °F 29.70 in SSE 10.0 mph 19.0 mph 85 % 0.00 in 554 W/m2
08:23 60.3 °F 55.7 °F 29.70 in SSE 11.0 mph 23.0 mph 85 % 0.00 in 373 W/m2
08:28 60.4 °F 55.3 °F 29.70 in SSE 12.0 mph 23.0 mph 83 % 0.00 in 287 W/m2
08:33 60.4 °F 55.3 °F 29.70 in SSE 13.0 mph 23.0 mph 83 % 0.00 in 680 W/m2
08:38 61.0 °F 55.4 °F 29.70 in SSE 13.0 mph 25.0 mph 82 % 0.00 in 332 W/m2
08:43 61.2 °F 55.3 °F 29.70 in SSE 12.0 mph 27.0 mph 81 % 0.00 in 253 W/m2
08:48 61.2 °F 55.3 °F 29.70 in South 12.0 mph 27.0 mph 81 % 0.00 in 251 W/m2
08:53 61.3 °F 55.1 °F 29.70 in South 12.0 mph 26.0 mph 80 % 0.00 in 220 W/m2
08:58 61.3 °F 55.1 °F 29.70 in SSE 12.0 mph 25.0 mph 80 % 0.00 in 223 W/m2
09:03 61.3 °F 55.1 °F 29.69 in SSE 12.0 mph 26.0 mph 80 % 0.00 in 297 W/m2
09:08 61.5 °F 54.9 °F 29.70 in SSE 14.0 mph 26.0 mph 79 % 0.00 in 397 W/m2
09:13 61.9 °F 55.3 °F 29.69 in SSE 14.0 mph 25.0 mph 79 % 0.00 in 461 W/m2
09:18 62.4 °F 55.1 °F 29.69 in SSE 12.0 mph 25.0 mph 77 % 0.00 in 657 W/m2
09:23 62.4 °F 55.1 °F 29.69 in SSE 13.0 mph 27.0 mph 77 % 0.00 in 473 W/m2
09:28 62.4 °F 55.1 °F 29.69 in South 14.0 mph 27.0 mph 77 % 0.00 in 285 W/m2
09:33 62.2 °F 54.9 °F 29.69 in South 13.0 mph 24.0 mph 77 % 0.00 in 327 W/m2
09:38 62.4 °F 55.1 °F 29.69 in SSE 13.0 mph 25.0 mph 77 % 0.00 in 403 W/m2
09:43 62.4 °F 54.8 °F 29.69 in SSE 14.0 mph 25.0 mph 76 % 0.00 in 422 W/m2
09:48 63.0 °F 55.3 °F 29.69 in SSE 16.0 mph 25.0 mph 76 % 0.00 in 369 W/m2
09:53 63.3 °F 55.6 °F 29.69 in SSE 13.0 mph 25.0 mph 76 % 0.00 in 313 W/m2
09:58 63.7 °F 55.6 °F 29.69 in South 13.0 mph 29.0 mph 75 % 0.00 in 269 W/m2
10:03 63.3 °F 55.3 °F 29.69 in South 16.0 mph 33.0 mph 75 % 0.00 in 239 W/m2
10:08 63.3 °F 55.3 °F 29.69 in South 14.0 mph 33.0 mph 75 % 0.00 in 638 W/m2
10:13 63.7 °F 55.6 °F 29.69 in South 13.0 mph 24.0 mph 75 % 0.00 in 302 W/m2
10:18 63.9 °F 55.4 °F 29.69 in SSE 14.0 mph 25.0 mph 74 % 0.00 in 338 W/m2
10:23 63.9 °F 55.0 °F 29.69 in SSE 14.0 mph 28.0 mph 73 % 0.00 in 304 W/m2
10:28 64.0 °F 55.2 °F 29.69 in SSE 13.0 mph 28.0 mph 73 % 0.00 in 359 W/m2
10:33 64.2 °F 55.4 °F 29.69 in SSE 14.0 mph 26.0 mph 73 % 0.00 in 387 W/m2
10:38 64.6 °F 55.3 °F 29.69 in SSE 16.0 mph 25.0 mph 72 % 0.00 in 302 W/m2
10:43 64.6 °F 55.3 °F 29.69 in SSE 16.0 mph 28.0 mph 72 % 0.00 in 417 W/m2
10:48 64.8 °F 55.5 °F 29.69 in SSE 14.0 mph 28.0 mph 72 % 0.00 in 327 W/m2
10:53 64.8 °F 55.1 °F 29.69 in SSE 14.0 mph 26.0 mph 71 % 0.00 in 302 W/m2
10:58 64.6 °F 55.0 °F 29.69 in SSE 15.0 mph 28.0 mph 71 % 0.00 in 260 W/m2
11:03 64.6 °F 55.0 °F 29.69 in SSE 14.0 mph 28.0 mph 71 % 0.00 in 255 W/m2
11:08 64.8 °F 55.1 °F 29.69 in SSE 12.0 mph 24.0 mph 71 % 0.00 in 234 W/m2
11:13 64.6 °F 55.0 °F 29.69 in SSE 12.0 mph 21.0 mph 71 % 0.00 in 367 W/m2
11:18 64.6 °F 55.0 °F 29.69 in SSE 14.0 mph 26.0 mph 71 % 0.00 in 243 W/m2
11:24 64.6 °F 55.0 °F 29.69 in SSE 14.0 mph 26.0 mph 71 % 0.00 in 172 W/m2
11:29 64.4 °F 54.8 °F 29.70 in SE 13.0 mph 25.0 mph 71 % 0.00 in 158 W/m2
11:34 64.2 °F 55.0 °F 29.69 in SE 13.0 mph 25.0 mph 72 % 0.00 in 269 W/m2
11:38 64.2 °F 55.0 °F 29.69 in SSE 13.0 mph 25.0 mph 72 % 0.00 in 334 W/m2
11:43 64.6 °F 55.3 °F 29.69 in SSE 13.0 mph 25.0 mph 72 % 0.00 in 378 W/m2
11:48 64.6 °F 55.0 °F 29.69 in SSE 15.0 mph 28.0 mph 71 % 0.00 in 367 W/m2
11:53 64.8 °F 55.1 °F 29.69 in SSE 16.0 mph 28.0 mph 71 % 0.00 in 373 W/m2
11:58 64.9 °F 54.9 °F 29.69 in SSE 14.0 mph 24.0 mph 70 % 0.00 in 216 W/m2
12:04 64.6 °F 55.0 °F 29.69 in SE 14.0 mph 23.0 mph 71 % 0.00 in 105 W/m2
12:09 64.4 °F 54.8 °F 29.69 in SSE 13.0 mph 23.0 mph 71 % 0.00 in 105 W/m2
12:14 64.2 °F 54.6 °F 29.69 in SSE 14.0 mph 23.0 mph 71 % 0.00 in 190 W/m2
12:19 64.2 °F 55.0 °F 29.69 in SSE 14.0 mph 23.0 mph 72 % 0.00 in 360 W/m2
12:24 64.6 °F 55.0 °F 29.69 in SSE 13.0 mph 23.0 mph 71 % 0.00 in 411 W/m2
12:29 65.1 °F 55.1 °F 29.69 in SSE 13.0 mph 23.0 mph 70 % 0.00 in 524 W/m2
12:34 65.8 °F 55.0 °F 29.69 in SSE 13.0 mph 24.0 mph 68 % 0.00 in 424 W/m2
12:39 66.0 °F 55.2 °F 29.69 in SSE 13.0 mph 24.0 mph 68 % 0.00 in 323 W/m2
12:44 65.8 °F 55.4 °F 29.69 in SSE 13.0 mph 23.0 mph 69 % 0.00 in 197 W/m2
12:49 65.7 °F 54.8 °F 29.69 in SSE 12.0 mph 20.0 mph 68 % 0.00 in 195 W/m2
12:54 65.7 °F 55.2 °F 29.69 in SE 11.0 mph 24.0 mph 69 % 0.00 in 225 W/m2
12:59 65.7 °F 55.2 °F 29.69 in SSE 11.0 mph 24.0 mph 69 % 0.00 in 281 W/m2
13:04 65.7 °F 55.2 °F 29.68 in SSE 12.0 mph 22.0 mph 69 % 0.00 in 229 W/m2
13:09 65.7 °F 54.8 °F 29.68 in SSE 13.0 mph 22.0 mph 68 % 0.00 in 265 W/m2
13:14 65.7 °F 54.8 °F 29.68 in SSE 14.0 mph 29.0 mph 68 % 0.00 in 311 W/m2
13:19 65.8 °F 54.6 °F 29.69 in SSE 15.0 mph 29.0 mph 67 % 0.00 in 367 W/m2
13:24 65.8 °F 54.6 °F 29.69 in SSE 14.0 mph 24.0 mph 67 % 0.00 in 306 W/m2
13:29 66.0 °F 54.3 °F 29.69 in SSE 13.0 mph 24.0 mph 66 % 0.00 in 274 W/m2
13:34 66.0 °F 54.3 °F 29.68 in SSE 13.0 mph 21.0 mph 66 % 0.00 in 255 W/m2
13:39 66.0 °F 54.3 °F 29.68 in SSE 12.0 mph 20.0 mph 66 % 0.00 in 257 W/m2
13:44 66.0 °F 54.3 °F 29.69 in SSE 12.0 mph 21.0 mph 66 % 0.00 in 199 W/m2
13:49 66.0 °F 54.3 °F 29.68 in SSE 12.0 mph 21.0 mph 66 % 0.00 in 213 W/m2
13:54 66.0 °F 54.3 °F 29.68 in SSE 12.0 mph 26.0 mph 66 % 0.00 in 311 W/m2
13:59 66.4 °F 54.3 °F 29.69 in SE 13.0 mph 26.0 mph 65 % 0.00 in 188 W/m2
14:04 66.4 °F 54.3 °F 29.68 in SSE 13.0 mph 21.0 mph 65 % 0.00 in 193 W/m2
14:09 66.4 °F 53.8 °F 29.69 in SSE 14.0 mph 25.0 mph 64 % 0.00 in 142 W/m2
14:14 66.2 °F 53.7 °F 29.69 in SSE 14.0 mph 25.0 mph 64 % 0.00 in 127 W/m2
14:19 66.4 °F 54.3 °F 29.69 in SSE 12.0 mph 25.0 mph 65 % 0.00 in 98 W/m2
14:24 66.2 °F 54.1 °F 29.69 in SSE 11.0 mph 19.0 mph 65 % 0.00 in 65 W/m2
14:29 66.0 °F 53.5 °F 29.69 in SSE 11.0 mph 20.0 mph 64 % 0.00 in 95 W/m2
14:34 66.0 °F 53.5 °F 29.69 in SSE 11.0 mph 21.0 mph 64 % 0.00 in 158 W/m2
14:42 66.0 °F 53.5 °F 29.69 in SSE 12.0 mph 21.0 mph 64 % 0.00 in 135 W/m2
14:47 66.0 °F 53.5 °F 29.69 in SSE 12.0 mph 21.0 mph 64 % 0.00 in 121 W/m2
14:52 65.8 °F 53.3 °F 29.69 in SSE 13.0 mph 23.0 mph 64 % 0.00 in 153 W/m2
14:57 65.8 °F 53.3 °F 29.69 in SSE 11.0 mph 23.0 mph 64 % 0.00 in 144 W/m2
15:02 65.8 °F 53.3 °F 29.69 in SSE 9.0 mph 15.0 mph 64 % 0.00 in 111 W/m2
15:07 65.8 °F 53.3 °F 29.69 in SSE 12.0 mph 26.0 mph 64 % 0.00 in 165 W/m2
15:12 65.8 °F 53.3 °F 29.69 in SSE 14.0 mph 26.0 mph 64 % 0.00 in 251 W/m2
15:17 65.8 °F 53.7 °F 29.68 in SSE 13.0 mph 24.0 mph 65 % 0.00 in 225 W/m2
15:22 66.0 °F 53.1 °F 29.68 in SSE 12.0 mph 22.0 mph 63 % 0.00 in 227 W/m2
15:27 66.4 °F 53.0 °F 29.68 in SSE 13.0 mph 24.0 mph 62 % 0.00 in 330 W/m2
15:32 66.6 °F 53.1 °F 29.68 in SE 14.0 mph 25.0 mph 62 % 0.00 in 290 W/m2
15:37 66.6 °F 53.1 °F 29.67 in SSE 14.0 mph 25.0 mph 62 % 0.00 in 276 W/m2
15:42 66.7 °F 52.9 °F 29.68 in SSE 14.0 mph 23.0 mph 61 % 0.00 in 306 W/m2
15:47 66.9 °F 53.5 °F 29.67 in SE 13.0 mph 23.0 mph 62 % 0.00 in 281 W/m2
15:53 67.1 °F 53.2 °F 29.67 in SE 12.0 mph 21.0 mph 61 % 0.00 in 276 W/m2
15:58 67.3 °F 53.4 °F 29.67 in SE 13.0 mph 22.0 mph 61 % 0.00 in 290 W/m2
16:03 67.3 °F 53.4 °F 29.67 in SE 13.0 mph 23.0 mph 61 % 0.00 in 322 W/m2
16:08 67.5 °F 53.1 °F 29.67 in SE 14.0 mph 25.0 mph 60 % 0.00 in 531 W/m2
16:13 67.6 °F 53.3 °F 29.67 in SE 15.0 mph 25.0 mph 60 % 0.00 in 418 W/m2
16:18 67.8 °F 53.4 °F 29.67 in SSE 13.0 mph 25.0 mph 60 % 0.00 in 410 W/m2
16:23 68.4 °F 53.5 °F 29.67 in SSE 14.0 mph 32.0 mph 59 % 0.00 in 782 W/m2
16:28 69.1 °F 53.7 °F 29.67 in SE 16.0 mph 32.0 mph 58 % 0.00 in 360 W/m2
16:33 68.9 °F 53.5 °F 29.67 in SE 15.0 mph 27.0 mph 58 % 0.00 in 371 W/m2
16:38 68.9 °F 54.0 °F 29.67 in SE 14.0 mph 27.0 mph 59 % 0.00 in 744 W/m2
16:43 69.4 °F 54.0 °F 29.66 in SE 13.0 mph 25.0 mph 58 % 0.00 in 777 W/m2
16:48 69.4 °F 53.5 °F 29.66 in SE 16.0 mph 31.0 mph 57 % 0.00 in 438 W/m2
16:53 69.3 °F 53.4 °F 29.66 in SSE 17.0 mph 31.0 mph 57 % 0.00 in 418 W/m2
16:58 69.3 °F 53.8 °F 29.66 in SE 16.0 mph 27.0 mph 58 % 0.00 in 418 W/m2
17:03 69.3 °F 53.4 °F 29.66 in SE 16.0 mph 27.0 mph 57 % 0.00 in 325 W/m2
17:08 69.1 °F 53.2 °F 29.66 in SE 16.0 mph 28.0 mph 57 % 0.00 in 369 W/m2
17:13 69.1 °F 53.7 °F 29.66 in SE 17.0 mph 28.0 mph 58 % 0.00 in 269 W/m2
17:18 68.7 °F 53.3 °F 29.66 in SE 15.0 mph 26.0 mph 58 % 0.00 in 369 W/m2
17:23 68.7 °F 53.3 °F 29.66 in SE 16.0 mph 28.0 mph 58 % 0.00 in 292 W/m2
17:28 68.9 °F 53.5 °F 29.66 in SE 15.0 mph 28.0 mph 58 % 0.00 in 223 W/m2
17:33 68.7 °F 53.3 °F 29.66 in SE 14.0 mph 23.0 mph 58 % 0.00 in 185 W/m2
17:38 68.5 °F 53.2 °F 29.66 in SE 14.0 mph 25.0 mph 58 % 0.00 in 163 W/m2
17:43 68.4 °F 53.0 °F 29.66 in SSE 14.0 mph 25.0 mph 58 % 0.00 in 163 W/m2
17:48 68.4 °F 53.0 °F 29.65 in SSE 14.0 mph 24.0 mph 58 % 0.00 in 137 W/m2
17:53 68.4 °F 53.0 °F 29.65 in SE 14.0 mph 24.0 mph 58 % 0.00 in 118 W/m2
17:58 68.2 °F 52.8 °F 29.65 in SE 13.0 mph 22.0 mph 58 % 0.00 in 97 W/m2
18:03 68.2 °F 52.4 °F 29.65 in SE 14.0 mph 28.0 mph 57 % 0.00 in 120 W/m2
18:08 68.0 °F 52.2 °F 29.65 in SE 15.0 mph 28.0 mph 57 % 0.00 in 120 W/m2
18:13 68.0 °F 52.7 °F 29.65 in SE 13.0 mph 27.0 mph 58 % 0.00 in 105 W/m2
18:18 68.0 °F 52.7 °F 29.65 in SE 12.0 mph 27.0 mph 58 % 0.00 in 95 W/m2
18:23 67.8 °F 52.5 °F 29.65 in SE 11.0 mph 20.0 mph 58 % 0.00 in 120 W/m2
18:28 68.0 °F 52.7 °F 29.65 in SE 12.0 mph 22.0 mph 58 % 0.00 in 116 W/m2
18:33 68.0 °F 52.7 °F 29.65 in SE 12.0 mph 22.0 mph 58 % 0.00 in 109 W/m2
18:38 68.2 °F 52.8 °F 29.65 in SE 11.0 mph 21.0 mph 58 % 0.00 in 90 W/m2
18:43 68.0 °F 52.7 °F 29.65 in SE 11.0 mph 21.0 mph 58 % 0.00 in 91 W/m2
18:49 68.0 °F 52.2 °F 29.65 in SE 13.0 mph 25.0 mph 57 % 0.00 in 98 W/m2
18:54 68.0 °F 52.2 °F 29.65 in SE 12.0 mph 25.0 mph 57 % 0.00 in 95 W/m2
18:59 68.0 °F 52.2 °F 29.65 in SE 11.0 mph 20.0 mph 57 % 0.00 in 88 W/m2
19:04 68.0 °F 52.2 °F 29.65 in SE 10.0 mph 18.0 mph 57 % 0.00 in 39 W/m2
19:09 67.8 °F 52.0 °F 29.65 in SE 11.0 mph 24.0 mph 57 % 0.00 in 33 W/m2
19:14 67.8 °F 52.5 °F 29.65 in SE 12.0 mph 24.0 mph 58 % 0.00 in 37 W/m2
19:19 67.6 °F 52.3 °F 29.65 in SE 11.0 mph 20.0 mph 58 % 0.00 in 37 W/m2
19:20 67.6 °F 52.3 °F 29.65 in SE 10.0 mph 16.0 mph 58 % 0.00 in 40 W/m2
19:25 67.6 °F 52.3 °F 29.65 in SE 10.0 mph 18.0 mph 58 % 0.00 in 42 W/m2
19:30 67.6 °F 52.3 °F 29.65 in SE 10.0 mph 19.0 mph 58 % 0.00 in 21 W/m2
19:35 67.6 °F 52.3 °F 29.65 in SE 10.0 mph 19.0 mph 58 % 0.00 in 18 W/m2
19:40 67.5 °F 52.2 °F 29.65 in SE 9.0 mph 15.0 mph 58 % 0.00 in 23 W/m2
19:45 67.5 °F 52.6 °F 29.65 in SE 8.0 mph 14.0 mph 59 % 0.00 in 26 W/m2
19:50 67.3 °F 52.5 °F 29.65 in SE 8.0 mph 14.0 mph 59 % 0.00 in 35 W/m2
19:55 67.3 °F 52.5 °F 29.65 in SE 9.0 mph 16.0 mph 59 % 0.00 in 33 W/m2
20:00 67.3 °F 52.5 °F 29.65 in SE 8.0 mph 16.0 mph 59 % 0.00 in 33 W/m2
20:05 67.3 °F 52.5 °F 29.65 in SE 8.0 mph 13.0 mph 59 % 0.00 in 26 W/m2
20:10 67.3 °F 52.5 °F 29.65 in SE 9.0 mph 18.0 mph 59 % 0.00 in 25 W/m2
20:15 67.3 °F 52.9 °F 29.65 in SE 8.0 mph 18.0 mph 60 % 0.00 in 21 W/m2
20:20 67.3 °F 52.5 °F 29.65 in SE 8.0 mph 16.0 mph 59 % 0.00 in 19 W/m2
20:25 67.1 °F 52.7 °F 29.64 in SE 9.0 mph 16.0 mph 60 % 0.00 in 12 W/m2
20:30 66.9 °F 52.6 °F 29.65 in SE 8.0 mph 13.0 mph 60 % 0.00 in 9 W/m2
20:35 66.9 °F 52.6 °F 29.65 in SE 8.0 mph 15.0 mph 60 % 0.00 in 7 W/m2
20:40 66.9 °F 52.6 °F 29.65 in SE 8.0 mph 15.0 mph 60 % 0.00 in 7 W/m2
20:45 66.7 °F 52.4 °F 29.65 in SE 8.0 mph 13.0 mph 60 % 0.00 in 5 W/m2
20:50 66.7 °F 52.4 °F 29.65 in SE 10.0 mph 19.0 mph 60 % 0.00 in 0 W/m2
20:56 66.7 °F 52.4 °F 29.65 in SE 11.0 mph 20.0 mph 60 % 0.00 in 0 W/m2
21:01 66.7 °F 52.4 °F 29.65 in SE 10.0 mph 20.0 mph 60 % 0.00 in 0 W/m2
21:06 66.7 °F 52.4 °F 29.65 in SE 10.0 mph 18.0 mph 60 % 0.00 in 0 W/m2
21:11 66.7 °F 52.4 °F 29.65 in SE 10.0 mph 18.0 mph 60 % 0.00 in 0 W/m2
21:16 66.6 °F 52.7 °F 29.65 in SE 10.0 mph 22.0 mph 61 % 0.00 in 0 W/m2
21:21 66.6 °F 52.7 °F 29.65 in SE 10.0 mph 22.0 mph 61 % 0.00 in 0 W/m2
21:26 66.6 °F 52.2 °F 29.65 in SE 10.0 mph 18.0 mph 60 % 0.00 in 0 W/m2
21:31 66.6 °F 52.7 °F 29.65 in SE 10.0 mph 20.0 mph 61 % 0.00 in 0 W/m2
21:36 66.6 °F 52.7 °F 29.65 in SE 10.0 mph 20.0 mph 61 % 0.00 in 0 W/m2
21:41 66.4 °F 52.5 °F 29.65 in ESE 9.0 mph 19.0 mph 61 % 0.00 in 0 W/m2
21:46 66.4 °F 52.5 °F 29.66 in SE 8.0 mph 18.0 mph 61 % 0.00 in 0 W/m2
21:51 66.2 °F 52.8 °F 29.66 in SE 8.0 mph 13.0 mph 62 % 0.00 in 0 W/m2
21:56 66.0 °F 52.6 °F 29.66 in ESE 8.0 mph 12.0 mph 62 % 0.00 in 0 W/m2
22:01 65.8 °F 53.7 °F 29.66 in ESE 8.0 mph 13.0 mph 65 % 0.00 in 0 W/m2
22:06 65.5 °F 53.4 °F 29.66 in ESE 7.0 mph 14.0 mph 65 % 0.00 in 0 W/m2
22:11 65.1 °F 53.5 °F 29.66 in SE 8.0 mph 14.0 mph 66 % 0.00 in 0 W/m2
22:16 64.9 °F 52.9 °F 29.66 in SE 8.0 mph 14.0 mph 65 % 0.00 in 0 W/m2
22:21 64.9 °F 52.9 °F 29.66 in SE 8.0 mph 15.0 mph 65 % 0.00 in 0 W/m2
22:26 64.9 °F 52.9 °F 29.66 in SE 8.0 mph 15.0 mph 65 % 0.00 in 0 W/m2
22:31 64.9 °F 52.5 °F 29.66 in SE 8.0 mph 14.0 mph 64 % 0.00 in 0 W/m2
22:36 64.9 °F 52.5 °F 29.66 in SE 8.0 mph 12.0 mph 64 % 0.00 in 0 W/m2
22:41 64.9 °F 52.9 °F 29.66 in SE 8.0 mph 15.0 mph 65 % 0.00 in 0 W/m2
22:46 64.9 °F 52.9 °F 29.66 in SE 9.0 mph 18.0 mph 65 % 0.00 in 0 W/m2
22:51 64.9 °F 52.9 °F 29.66 in SE 8.0 mph 18.0 mph 65 % 0.00 in 0 W/m2
22:56 64.8 °F 53.1 °F 29.66 in SE 6.0 mph 11.0 mph 66 % 0.00 in 0 W/m2
23:01 64.8 °F 53.1 °F 29.66 in SE 5.0 mph 9.0 mph 66 % 0.00 in 0 W/m2
23:06 64.6 °F 53.0 °F 29.66 in SSE 5.0 mph 8.0 mph 66 % 0.00 in 0 W/m2
23:11 64.4 °F 52.8 °F 29.67 in SSE 5.0 mph 8.0 mph 66 % 0.00 in 0 W/m2
23:16 64.2 °F 53.8 °F 29.67 in South 6.0 mph 14.0 mph 69 % 0.00 in 0 W/m2
23:21 64.0 °F 54.4 °F 29.67 in South 8.0 mph 14.0 mph 71 % 0.00 in 0 W/m2
23:26 63.7 °F 54.9 °F 29.67 in South 9.0 mph 15.0 mph 73 % 0.00 in 0 W/m2
23:31 63.3 °F 54.9 °F 29.67 in South 9.0 mph 15.0 mph 74 % 0.00 in 0 W/m2
23:36 63.0 °F 55.6 °F 29.67 in South 8.0 mph 14.0 mph 77 % 0.00 in 0 W/m2
23:41 62.4 °F 56.2 °F 29.67 in South 7.0 mph 14.0 mph 80 % 0.00 in 0 W/m2
23:46 62.1 °F 56.5 °F 29.67 in South 6.0 mph 10.0 mph 82 % 0.01 in 0 W/m2
23:51 61.5 °F 56.3 °F 29.67 in South 6.0 mph 10.0 mph 83 % 0.01 in 0 W/m2
23:56 61.2 °F 56.3 °F 29.67 in SSE 6.0 mph 13.0 mph 84 % 0.01 in 0 W/m2
Delerius-Weather
Compliments of Weather Underground - 2.25 mb

Data updates at regular intervals.